LA PANORAMIQUE - 08/08/2013

LA PANORAMIQUE


Pl Do. Nom - Surname Prénom - Name S-Cat TEMPS - Time
1 427 KIMOSOP KIPROTIC Edward MS 01:01:51
2 168 RAYMOND Regis MV1 01:03:51
3 436 ROUX Gerald MS 01:04:28
4 357 GHIRARD Florent MS 01:04:41
5 159 POUSSOU Cyril MS 01:05:37
6 426 BLESES Jean Paul MV1 01:06:01
7 241 NEVEU Damien MS 01:06:22
8 177 PETITJEAN Nicolas MS 01:07:51
9 335 MIGNOT Thierry MS 01:08:20
10 342 LUZY Julien MS 01:09:02
11 331 BRACCO Gilles MV1 01:09:15
12 13 CAZARD Yoan MS 01:09:26
13 211 PAILLARD Jacky MV1 01:09:53
14 300 BONNOT Francois MS 01:10:01
15 163 CHARVOLIN Lionel MS 01:10:11
16 209 DUCOROY Jean Luc MS 01:10:18
17 146 MARTINEZ Francis MV2 01:10:32
18 147 VIGNAUD Christian MV2 01:11:30
19 288 CHEVREUIL Mathieu MS 01:11:31
20 375 GARROS Jean Michel MV1 01:12:39
21 205 MARECHAL Jean Denis MV2 01:12:49
22 112 PIQUET Patrice MV2 01:12:52
23 377 BAGARD Benoit MS 01:13:15
24 171 REGAZZONI Hugues ME 01:13:29
25 134 ROUDET Vincent MS 01:13:30
26 157 ZERROUGUI Zaidi MV1 01:13:36
27 364 FAURE Guillaume MS 01:13:43
28 236 CHOLIN Cyril MS 01:13:57
29 199 HAVARD Pierre Alexandre MV1 01:13:59
30 244 GUIDO Pascal MS 01:14:03
31 266 ISABAL Philippe MV2 01:14:10
32 259 PIERRON Georges MS 01:14:12
33 150 VALLS Jean Francois MV2 01:14:17
34 299 FERNANDEZ David MS 01:14:40
35 208 RIU Olivier MS 01:14:50
36 135 ROUDET Matthieu MS 01:15:01
37 133 PAGES Christophe MS 01:15:04
38 397 MASACZ Stanislas MS 01:15:16
39 371 BARCELO Sebastien MS 01:16:25
40 83 CLOS Christian MV2 01:16:34
41 84 MALET Jean Michel MV1 01:16:40
42 129 COFFY Eric MV2 01:16:43
43 285 PAVUE Adrien MS 01:17:08
44 56 HAMON Jean Claude MV3 01:17:12
45 388 CADO Nicolas MS 01:17:14
46 178 PICOLLE Ludovic MS 01:17:27
47 341 TRANI Alexandre MS 01:17:29
48 338 AHAJJOUT Aziz MV1 01:17:33
49 213 MARCHIONI Thierry MV1 01:17:34
50 111 CALVEL Pierre MV1 01:17:37
51 109 SALVA Christophe MV1 01:17:38
52 380 JAMPY Mathieu MS 01:17:39
53 238 CASALS Vincent MS 01:17:41
54 165 ATMANE Stephane MV1 01:17:47
55 384 VIET Francis MV3 01:17:50
56 382 PEREZ Jean MV1 01:17:56
57 235 HUILLO Mathieu MS 01:18:19
58 185 BOTELLA El Rancho MV2 01:18:22
59 200 FERNANDES Philippe MV2 01:18:29
60 43 SIBIRIL Gilbert MV1 01:18:41
61 189 GARCES Bernard MV2 01:18:43
62 280 LEROY Thibault MJU 01:18:45
63 117 JACQUET Galdric MS 01:18:48
64 175 LEMOINE Eric MV1 01:18:50
65 255 ROSEY Christophe MV1 01:19:02
66 92 BRUNET Vincent MS 01:19:07
67 30 ORIOL Mathieu MS 01:19:09
68 343 GANDOU Gauthier ME 01:19:18
69 79 MACON Vincent MS 01:19:30
70 99 GARCIA Jose Maria MV1 01:19:52
71 45 VILMEN Lionel MS 01:20:09
72 351 IRLES Eric MV1 01:20:20
73 339 DEL CORRAL Jean Pierre MV1 01:20:22
74 55 COLOM Nathalie FS 01:20:25
75 54 PENNIELLO Marc MS 01:20:26
76 100 RYCKAERT Geert MV1 01:20:29
77 219 HIRSCH Raynal MV1 01:20:32
78 63 COIFFIER Laurent MV2 01:20:41
79 225 GAFFARD Renaud MS 01:20:47
80 106 BANSERET Cedric MS 01:20:59
81 287 MATHELIN Tom ME 01:21:04
82 362 SIBIEUDE Floriant MS 01:21:12
83 260 ROUSSEL Yoann MS 01:21:28
84 58 ROUX Andre MV1 01:21:36
85 184 NELIS Daniel MV3 01:21:42
86 224 DEWULF   MS 01:21:47
87 186 BOTELLA Marc MV2 01:21:53
88 275 GRAS Roland MV1 01:21:58
89 89 PRIOULT David MS 01:22:05
90 207 WAELES Patrick MV2 01:22:08
91 367 HERVOIT David MV1 01:22:10
92 274 TREVISAN Celia FS 01:22:12
93 273 CERESUELA Stephan MV1 01:22:14
94 374 SOULERE Frederic MS 01:22:38
95 33 VARENARD Olivier MS 01:22:59
96 267 MEROU Christian MV1 01:23:03
97 365 CHENEL Pierre MS 01:23:07
98 379 CHENEL Francois MS 01:23:08
99 398 BERNARD Loic MS 01:23:10
100 191 GALOIS Johan MS 01:23:15
101 61 MELAC Christophe MS 01:23:24
102 124 SARTHER Emmanuel MV1 01:23:30
103 138 PERDRIAU Dominique MV3 01:23:32
104 81 GAUCHER Didier MV2 01:23:33
105 110 POUGET Jean Noel MV1 01:23:37
106 269 FEIDT Claire FE 01:23:38
107 289 PENARGUEAR Dominique MV1 01:23:40
108 347 SCHUPP Jean MV2 01:23:42
109 361 BUREAU Nicolas MS 01:23:59
110 69 SALA Christian MV3 01:24:02
111 103 BOURGEAIS Nicolas ME 01:24:05
112 128 BACHELARD Dominique MV2 01:24:18
113 197 HINGRAY Arnaud MV1 01:24:20
114 140 CHAVANETTE Claude MV2 01:24:26
115 48 OKAZ Juana FV3 01:24:29
116 239 PHILIPPOT Yannick MV3 01:24:32
117 162 YEMSI Yves MV1 01:24:53
118 18 HAMONIC Philippe MV1 01:24:57
119 295 CAROUGE Didier MS 01:25:01
120 242 POL Jean Luc MV1 01:25:03
121 363 GAYRAUD Pascale FV1 01:25:04
122 174 KEROUANTON Marc MV2 01:25:06
123 172 POUVESLE Alain MV3 01:25:14
124 346 PARXES Maurice MV4 01:25:17
125 229 DUBOIS Thierry MV2 01:25:19
126 21 PEROT Christophe MS 01:25:36
127 271 LELOUP Laurent MV1 01:25:51
128 366 ROIG Alain MS 01:25:53
129 145 ROIG Bruno MS 01:25:55
130 139 BAIXAS Gilbert MV1 01:25:59
131 60 PIGNON Pierre Yves MV1 01:26:02
132 188 MORELLE Christophe MV1 01:26:09
133 153 HORCAS Francois MV1 01:26:10
134 196 LABALME Stephane MV1 01:26:18
135 263 VAUX Frederic MS 01:26:23
136 164 BAPTISTE David MS 01:26:24
137 291 LAURENCIE Christophe MV1 01:26:26
138 204 BOUAZIZ Ali MV1 01:26:29
139 355 BES Franck MS 01:26:49
140 356 GORCE Bruno MS 01:26:50
141 396 GASPARINI Thierry MV1 01:27:07
142 243 MIFFRE Guillem MS 01:27:09
143 247 CENSI Jeremy MS 01:27:12
144 276 BEGUE Andre MV1 01:27:28
145 181 CASENOBE Benjamin MJU 01:27:33
146 131 OLIVE Guillaume MS 01:27:42
147 387 LLOPIS Alexis MS 01:28:06
148 386 TUSCH Franck MS 01:28:13
149 201 JONCHERE Alexandre MS 01:28:42
150 142 FERODET Michel MV1 01:28:46
151 423 BILLY Jacques Henri MV1 01:28:52
152 118 JUVANY Mathieu ME 01:29:14
153 121 DREYDEMY Guy MV2 01:29:26
154 182 FLOIRAC Jeremie MS 01:29:30
155 183 LAFFONT Loic MS 01:29:37
156 256 LOPEZ Patrick MV2 01:29:58
157 424 DUFOUR Damien MV1 01:30:09
158 240 MASCLEF Pascal MV1 01:30:11
159 284 PIED Raphael MS 01:30:12
160 187 GUILLEMET Nicolas MV1 01:30:19
161 261 CIMONILO Stephane MV1 01:30:21
162 248 AULAGNER Gilles MV1 01:30:27
163 378 VILLARDELL Jean Pierre MV1 01:30:41
164 104 BAYLE Pierre MV3 01:30:43
165 23 THEPEGNIER Benjamin MS 01:30:44
166 98 TOURNEUR Christian MV2 01:30:50
167 173 RYCKEBOER Marc MV1 01:30:53
168 198 HAVARD Rachel FV1 01:31:01
169 91 LE CLOIREC Eric MV1 01:31:04
170 144 PONS Michel MV2 01:31:07
171 350 CAZES Emanuel MV1 01:31:15
172 80 MASSOL Joel MV1 01:31:28
173 203 MORENO Anthony MS 01:31:33
174 399 MARKIN Anthony MS 01:31:38
175 206 DORIN Nathalie FV1 01:31:56
176 348 LARDENOIS Yann MS 01:32:05
177 294 ANIEN Eric MS 01:32:09
178 202 MORENO Fanny FS 01:32:19
179 279 LEROY Maxime ME 01:32:23
180 227 CARASCO Sebastien MS 01:32:26
181 42 SALVADOR Michaël MS 01:32:28
182 167 DE LA OSA Bernard MV2 01:32:36
183 422 LEMAIRE David MV1 01:32:39
184 97 HEMROTTE Romuald MV1 01:32:43
185 381 RIVIERE David MS 01:32:45
186 438 COSTA Vincent MS 01:32:48
187 391 DIDIA Patrice MV2 01:32:52
188 59 CARAPEZZI Philippe MV2 01:33:08
189 390 DE NYS Laurent MV1 01:33:10
190 180 VILLALONGUE Wilfried MV3 01:33:11
191 395 DELPINO Jean Louis MS 01:33:13
192 102 LERICHE Jean Pierre MV1 01:33:22
193 116 GAU Philippe MV2 01:33:24
194 290 CASTILLO Laurent MV1 01:33:25
195 216 MARCUELLO Henri MV2 01:33:27
196 169 HURAULT Virginie FS 01:33:28
197 258 DEVOYON Fabrice MV1 01:33:31
198 352 VIDAL Eric MS 01:33:34
199 96 LUCAS Jeremy MS 01:33:44
200 249 AUGUSTY Francis MV3 01:33:45
201 65 AZOU Rene MV2 01:33:47
202 429 BELLET Gabriel MV1 01:34:06
203 433 DHORME Pierre MS 01:34:43
204 298 COQUELET Corinne FV1 01:34:49
205 14 DUBOCQ Pierre MV3 01:34:57
206 87 DELLACH Andre MV1 01:35:02
207 332 RONNE Florence FS 01:35:13
208 130 FONS Vincent MS 01:35:16
209 86 SIBIEUDE Patrice MV1 01:35:19
210 286 MATHELIN Thierry MV2 01:35:30
211 115 ALVES Daniel MS 01:35:37
212 8 BAILLES Olivier MV1 01:36:01
213 245 FREIXINOS Jean Noel MV1 01:36:08
214 434 BOUCABEILLE Jean MV1 01:36:17
215 161 PAILLISSE Guillaume MS 01:36:23
216 108 BONNEVIDE Benjamin ME 01:36:33
217 237 AUDRY Coralie FS 01:36:34
218 127 JOSEPH Jean MV2 01:36:39
219 94 LE BOULAIR Marc MV2 01:36:50
220 132 DOMENECH Jean Baptiste MS 01:37:09
221 137 SERADELL Jean Francois MV2 01:37:14
222 349 GUILLOT Gilles MV1 01:37:16
223 432 LIGAT Jean Louis MV1 01:37:18
224 369 TECHER Jerome MS 01:37:30
225 192 LITOT David MV1 01:37:41
226 143 FERODET Maxence MJU 01:37:42
227 7 REYNAL Jean Louis MV3 01:37:43
228 353 FAITG Marlies FS 01:37:50
229 354 FAITG Boris MV1 01:37:51
230 66 FOINEL Gilbert MV3 01:37:54
231 194 GROSJEAN Eric MV2 01:37:58
232 250 LLERES Laurent MS 01:38:18
233 105 PIQUET Robert MV4 01:38:19
234 82 REMOND Pascal MV2 01:38:29
235 32 BOUVIER Francis MV1 01:38:34
236 125 MOLINE Herve MV2 01:38:39
237 234 JUNGBLUTH Philippe MS 01:38:53
238 119 ROSSIGNOL Serge MV2 01:39:00
239 214 PENOT Claude MV3 01:39:02
240 67 GIRONNE Paul MS 01:39:10
241 217 FONTAINE Carine FS 01:39:17
242 360 RAYNAL Stephane MV1 01:39:33
243 77 OLIVE Marc MV3 01:39:50
244 11 COUDRONINIERE Evelyne FV1 01:39:52
245 155 MARTINEZ Carole FV1 01:39:59
246 52 MARCO Gerard MV2 01:40:30
247 212 GUEVEL Chantal MV1 01:40:36
248 272 GIACONE Ghislaine FV1 01:40:40
249 268 MERCIER Jennifer FS 01:40:52
250 160 CORREAS Alexandra FS 01:40:53
251 336 THORENT Henri MV2 01:40:57
252 74 BOTTIN Paul MJU 01:41:06
253 358 BAIXELLERIE Christian MV2 01:41:08
254 123 GRINCOURT David MV1 01:41:30
255 376 MARTINEZ Claudine FV1 01:41:47
256 252 SOULA Michel MV2 01:41:52
257 148 VIGNAUD Sandrine FV1 01:42:06
258 158 BOUREILLE Yann MS 01:42:08
259 292 VASSAS Clement ME 01:42:10
260 265 CUISINIER Nicolas MS 01:42:11
261 264 BARRIERE Brice MS 01:42:13
262 277 DAMIENS Francois MS 01:42:17
263 68 MARTINEZ Jean Francois MV3 01:42:23
264 437 BLAZY Nicolas MJU 01:42:42
265 425 MACABIAU Sebastien MV1 01:42:44
266 392 VELLA Pascale FV1 01:42:48
267 233 GIROIR Pauline FS 01:43:00
268 190 PICOLE Stephane MS 01:43:15
269 373 CASES Edith FS 01:43:17
270 90 TARTROU Raymond MV4 01:43:23
271 151 BEGUE Thierry MV1 01:43:32
272 193 CHOUANIERE Jean Jacques MV2 01:43:40
273 385 SALVAT Philippe MV1 01:43:50
274 430 LEMIERE Alain MV2 01:43:51
275 149 HUGARD Daniel MV2 01:43:56
276 76 GUEDRAT Philippe MV1 01:44:08
277 218 CANET Sebastien MV1 01:44:12
278 20 SEMPERE Christian MV3 01:44:26
279 176 PETITJEAN Andre MV2 01:44:35
280 254 FERRER Roger MV3 01:44:48
281 389 BASILE Michele FV3 01:45:06
282 345 BUFFORN Eric MV1 01:45:17
283 2 ANIFRANI Jean Charles MV2 01:45:30
284 283 ALBUIXECH Joseph MV2 01:45:32
285 73 GIRAUD Stéphanie FV1 01:45:35
286 75 MARAULT Denis MV1 01:45:36
287 428 NOY Thierry MV2 01:45:55
288 154 SALES Maxime MS 01:45:59
289 359 BOISSONT Jean Charles MV2 01:46:14
290 93 HERNANDEZ Isaac MV4 01:46:31
291 334 ARNAL Marlene FS 01:46:34
292 64 ROY Valerie FV1 01:46:37
293 62 ROY Jean Luc MV2 01:46:39
294 5 LAMY Fabienne FV1 01:46:40
295 6 BILLEBAULT Laurent MV1 01:46:41
296 393 BALTA Laetitia FS 01:46:43
297 394 BORDENEUVE Rene MV1 01:46:45
298 293 JEAN Jerome MV1 01:47:14
299 435 MALEKZADEH Amir MS 01:47:15
300 210 LUCQUET Virgine FS 01:47:17
301 251 PORTAL Eric MS 01:47:19
302 19 SACRISTA Valérie FV1 01:47:20
303 101 PADRIXE Nicolas MS 01:47:29
304 281 VAN ENIS Lode MV1 01:47:36
305 337 RUIZ Romain MS 01:47:38
306 368 DELOFFRE Gael MS 01:47:45
307 136 DUTERTRE Charles MV4 01:47:57
308 170 BOURJAC Jean Pierre MV2 01:48:02
309 107 DANQUECHIN DORVAL Gerard MV2 01:48:11
310 166 TICHADOU Nicole FV2 01:48:13
311 431 MAS Patrice MV1 01:48:21
312 297 RUIZ Gilbert MV1 01:48:25
313 246 TAHAR FREIXINOS Caroline FV1 01:48:37
314 179 GOURBAL Sylvain MS 01:48:48
315 270 FERRER Cedric MS 01:48:50
316 120 DOUTRES Jonathan MS 01:49:00
317 262 RICARD Sylvain MS 01:49:46
318 333 GRANDO Christophe MS 01:50:07
319 222 PAYROU Christophe MS 01:50:08
320 85 MARQUIS Thierry MV1 01:50:09
321 1 PERSON Claude MV3 01:50:45
322 122 COLAS Caroline FV1 01:50:49
323 152 SAINT MARTIN Bernard MV2 01:50:50
324 141 WUCHER Caroline FS 01:51:05
325 223 AKAL Mohamed MS 01:51:06
326 421 FARINES Andrien MJU 01:51:08
327 282 VAN ENIS Sandra FV1 01:51:09
328 114 RUIZ Melanie FE 01:52:10
329 113 ESCALLE Florence FS 01:52:11
330 231 FONTANELL Lionel MS 01:52:48
331 278 LEROY Philippe MV2 01:53:03
332 195 TREMPONT Hugo MS 01:53:56
333 370 POIRSON Maxime MV1 01:54:11
334 70 VIRION Celine FS 01:54:46
335 126 BOURGAIN-WATTIAU Anne FV2 01:55:10
336 340 CHAPEY Claude MV3 01:56:15
337 220 BERNIER Benedicte FV1 01:56:40
338 221 BERNIER Norbert MV1 01:56:41
339 296 CASSAN David MS 01:56:43
340 156 HEBERT Jean Luc MV2 01:56:53
341 71 MARQUIS Carole FV1 01:57:03
342 88 PRIOULT Emmanuelle FS 01:58:07
343 49 MOHEDANO Paquita FV4 01:58:48
344 226 GAFFARD Laurie FS 01:59:24
345 51 SAINTAIS Deborah FS 02:00:22
346 53 CASANAS Alex MS 02:00:24
347 57 TOIX Denis MV3 02:00:25
348 78 GUITART Michel MV2 02:00:40
349 232 BAUER Daniele FV2 02:04:04
350 9 ARQUER Sandra FS 02:08:12
351 50 CAVAILLE Eugene MV4 02:08:13
352 72 BURDEN Susan FV1 02:09:30
353 230 FONTANELL Christelle FS 02:11:40
354 257 DEVOYON Carine FV1 02:11:41
355 228 LAMARQUE Florent MV1 02:11:42
356 215 VINCENT Christian MV2 02:20:00
357 95 BUYENS Johan MV3 02:25:00
358 383 VIET Sylviane FV3 02:35:00